Location: The Saddle
(36.8333°N, 80.3417°W)
Time: 03:42:15
(UTC-04:00)

Vanguard 3 - Pass Details

Date: 03 March 2024
Orbit: 510 x 3234 km, 33.3° (Epoch: 24 April)

Event Time Altitude Azimuth Distance (km) Brightness Sun altitude
Rises 22:19:14 0° 275° (W) 6,826 12.4 -46.8°
Reaches altitude 10° 22:23:31 10° 274° (W) 5,986 11.9 -47.5°
Enters shadow 22:40:49 69° 236° (SW) 3,328 9.9 -50.1°
